Meteo Giornale » Osservazioni meteo Stati Uniti (USA) » New Stuyahok
ore: 16:56 - Osservazioni Meteo New Stuyahok
Lat. 59° 27' N Lon. 157° 20' W Alt. 92 metri s.l.m.
12 °C
Sereno
Temp. 24 Ore
4 °C
12 °C
Nord
20.3 Km/h
Dew point 1 °C
Umidità 46 %
Visibilità 10 Km
Il sole sorge alle ore 07:24
Il sole tramonta alle ore 21:34
| Data e Ora | Cielo e Fenomeni | T °C | DP °C | Um. % | Pres. hPa | Vis. km | Vento km/h | |
|---|---|---|---|---|---|---|---|---|
| Oggi h: 16:56 | Sereno | 12 | 1 | 46 | 1012 | 10 | N 20.3 | |
| Oggi h: 15:56 | Sereno | 12 | 2 | 50 | 1012 | 10 | N 16.7 | |
| Oggi h: 14:56 | Sereno | 11 | 2 | 53 | 1012 | 10 | N 20.3 | |
| Oggi h: 13:56 | Sereno | 10 | 1 | 53 | 1012 | 10 | N 24 | |
| Oggi h: 12:56 | Sereno | 9 | 1 | 57 | 1013 | 10 | N 20.3 | |
| Oggi h: 11:56 | Sereno | 8 | 1 | 61 | 1013 | 10 | N 20.3 | |
| Oggi h: 10:56 | Sereno | 7 | 2 | 70 | 1013 | 10 | N/NE 14.8 | |
| Oggi h: 09:56 | Sereno | 6 | 2 | 75 | 1013 | 10 | N 20.3 | |
| Oggi h: 08:56 | Sereno | 4 | 2 | 86 | 1012 | 10 | N 11.1 | |
| Oggi h: 07:56 | Sereno | 4 | 3 | 93 | 1012 | 10 | N/NE 11.1 | |
| Oggi h: 06:56 | Molto Nuvoloso | 5 | 4 | 93 | 1012 | 10 | N 0 | |
| Oggi h: 06:19 | Molto Nuvoloso | 5 | 4 | 93 | 1012 | 10 | N 5.5 | |
| Oggi h: 05:56 | Nuvoloso | 5 | 4 | 93 | 1012 | 10 | NE 9.3 | |
| Oggi h: 05:53 | Molto Nuvoloso | 5 | 4 | 93 | 1012 | 10 | NE 9.3 | |
| Oggi h: 04:56 | Sereno | 6 | 5 | 93 | 1013 | 10 | N/NE 9.3 | |
| Oggi h: 03:56 | Nuvoloso | 7 | 6 | 93 | 1013 | 10 | N 7.4 | |
| Oggi h: 02:56 | Sereno | 6 | 5 | 93 | 1013 | 10 | O/NO 13 | |
| Oggi h: 01:56 | Sereno | 6 | 5 | 93 | 1013 | 10 | O 14.8 | |
| Oggi h: 00:56 | Sereno | 6 | 5 | 93 | 1013 | 10 | O/SO 13 | |
| Ieri h: 23:56 | Sereno | 7 | 6 | 93 | 1013 | 10 | O 14.8 | |
| Ieri h: 22:56 | Sereno | 8 | 6 | 87 | 1013 | 10 | O 14.8 | |
| Ieri h: 21:56 | Sereno | 9 | 7 | 87 | 1014 | 10 | O 9.3 | |
| Ieri h: 20:56 | Molto Nuvoloso | 11 | 7 | 76 | 1013 | 10 | O 20.3 | |
| Ieri h: 19:56 | Poco Nuvoloso | 12 | 7 | 71 | 1013 | 10 | O 16.7 | |
| Ieri h: 19:27 | Molto Nuvoloso | 12 | 8 | 76 | 1013 | 10 | O 13 | |
| Ieri h: 19:03 | Coperto | 12 | 8 | 76 | 1014 | 10 | O/SO 18.5 | |
| Ieri h: 18:56 | Coperto | 12 | 8 | 76 | 1014 | 10 | O/SO 20.3 | |
| Ieri h: 18:19 | Coperto | 12 | 9 | 81 | 1014 | 10 | SO 18.5 | |
| Ieri h: 17:56 | Pioggia | 11 | 9 | 87 | 1014 | 11 | SO 24 | |
| Ieri h: 17:43 | Coperto | 11 | 9 | 87 | 1014 | 10 | SO 22.2 | |



